Rockport, TX

3:41 PM CDT on March 27, 2017 (GMT -0500)
Aransas County

Weather History for KRKP - July, 2013

Change the Weather History Date:

Wednesday, July 24, 2013

  Actual Average Record
Temperature  
Mean Temperature 86 °F -  
Max Temperature 91 °F 90 °F 95 °F (1979)
Min Temperature 81 °F 77 °F 70 °F (1976)
Cooling Degree Days 21    
Growing Degree Days 36 (Base 50)    
Moisture  
Dew Point 75 °F    
Average Humidity 72    
Maximum Humidity 85    
Minimum Humidity 59    
Precipitation  
Precipitation 0.00 in - - ()
Sea Level Pressure  
Sea Level Pressure 29.95 in    
Wind  
Wind Speed 10 mph (SSE)    
Max Wind Speed 15 mph    
Max Gust Speed 22 mph    
Visibility 9 miles    
Events      
Averages and records for this station are not official NWS values.
T = Trace of Precipitation, MM = Missing Value Source: NWS Daily Summary

Daily Weather History Graph

Daily Weather History Graph

Search for Another Location

Airport or City:

Trip Planner

Search our weather history database for the weather conditions in past years. The results will help you decide how hot, cold, wet, or windy it might be!

Date:

Astronomy

Jul. 24, 2013 Rise Set
Actual Time 6:46 AM CDT 8:22 PM CDT
Civil Twilight 6:20 AM CDT 8:48 PM CDT
Nautical Twilight 5:49 AM CDT 9:19 PM CDT
Astronomical Twilight 5:17 AM CDT 9:51 PM CDT
Moon 9:49 PM CDT (7/24) 8:51 AM CDT (7/24)
Length of Visible Light 14h 27m
Length of Day
13h 36m
Waning Gibbous, 94% of the Moon is Illuminated
Jul 24
Waning Gibbous
Jul 29
Last Quarter
Aug 6
New
Aug 14
First Quarter
Aug 20
Full

Hourly Weather History & Observations

Time (CDT) Temp. Heat Index Dew Point Humidity Pressure Visibility Wind Dir Wind Speed Gust Speed Precip Events Conditions
12:42 AM 82.4 °F 89.5 °F 75.2 °F 79% 29.95 in 9.0 mi SSE 10.4 mph 17.3 mph N/A   Mostly Cloudy
12:53 AM 82.9 °F 90.2 °F 75.0 °F 77% 29.95 in 9.0 mi SSE 9.2 mph 19.6 mph N/A   Mostly Cloudy
1:10 AM 82.4 °F 89.5 °F 75.2 °F 79% 29.94 in 9.0 mi SSE 10.4 mph 20.7 mph N/A   Scattered Clouds
1:53 AM 82.0 °F 88.6 °F 75.0 °F 79% 29.94 in 9.0 mi South 9.2 mph 19.6 mph N/A   Partly Cloudy
2:53 AM 82.0 °F 89.4 °F 75.9 °F 82% 29.93 in 9.0 mi SSE 12.7 mph 20.7 mph N/A   Scattered Clouds
3:53 AM 82.0 °F 88.6 °F 75.0 °F 79% 29.92 in 9.0 mi South 9.2 mph 20.7 mph N/A   Partly Cloudy
4:53 AM 82.0 °F 88.6 °F 75.0 °F 79% 29.94 in 9.0 mi South 9.2 mph - N/A   Clear
5:53 AM 82.0 °F 88.6 °F 75.0 °F 79% 29.95 in 8.0 mi South 5.8 mph - N/A   Clear
6:53 AM 81.0 °F 87.3 °F 75.9 °F 85% 29.96 in 7.0 mi Variable 3.5 mph - N/A   Clear
7:53 AM 82.9 °F 90.8 °F 75.9 °F 79% 29.97 in 7.0 mi Variable 4.6 mph - N/A   Clear
8:53 AM 84.9 °F 94.1 °F 75.9 °F 74% 29.98 in 8.0 mi South 8.1 mph - N/A   Clear
9:53 AM 87.1 °F 96.3 °F 75.0 °F 67% 29.97 in 8.0 mi South 10.4 mph 18.4 mph N/A   Partly Cloudy
10:30 AM 87.8 °F 95.6 °F 73.4 °F 62% 29.97 in 9.0 mi South 10.4 mph 19.6 mph N/A   Mostly Cloudy
10:53 AM 89.1 °F 99.1 °F 75.0 °F 63% 29.98 in 9.0 mi South 9.2 mph 19.6 mph N/A   Mostly Cloudy
11:38 AM 87.8 °F 97.6 °F 75.2 °F 66% 29.98 in 8.0 mi South 8.1 mph 17.3 mph N/A   Scattered Clouds
11:53 AM 90.0 °F 100.2 °F 75.0 °F 61% 29.98 in 9.0 mi SSE 13.8 mph 17.3 mph N/A   Partly Cloudy
12:53 PM 89.1 °F 99.1 °F 75.0 °F 63% 29.99 in 9.0 mi SSE 11.5 mph - N/A   Clear
1:53 PM 91.0 °F 101.6 °F 75.0 °F 59% 29.96 in 9.0 mi South 6.9 mph 18.4 mph N/A   Clear
2:53 PM 90.0 °F 100.2 °F 75.0 °F 61% 29.94 in 9.0 mi SE 15.0 mph 18.4 mph N/A   Partly Cloudy
3:53 PM 90.0 °F 100.2 °F 75.0 °F 61% 29.92 in 9.0 mi SE 15.0 mph 21.9 mph N/A   Clear
4:53 PM 89.1 °F 99.1 °F 75.0 °F 63% 29.91 in 9.0 mi SE 15.0 mph - N/A   Clear
5:53 PM 86.0 °F 95.1 °F 75.0 °F 70% 29.90 in 9.0 mi SSE 13.8 mph 20.7 mph N/A   Clear
6:53 PM 86.0 °F 95.1 °F 75.0 °F 70% 29.88 in 9.0 mi SSE 12.7 mph 19.6 mph N/A   Clear
7:53 PM 84.0 °F 91.9 °F 75.0 °F 74% 29.90 in 9.0 mi SE 12.7 mph - N/A   Clear
8:53 PM 82.9 °F 90.2 °F 75.0 °F 77% 29.91 in 9.0 mi SSE 9.2 mph - N/A   Clear
9:53 PM 82.9 °F 90.2 °F 75.0 °F 77% 29.94 in 10.0 mi SSE 10.4 mph 17.3 mph N/A   Clear
10:53 PM 82.9 °F 90.2 °F 75.0 °F 77% 29.95 in 10.0 mi SSE 10.4 mph 19.6 mph N/A   Partly Cloudy
11:53 PM 82.0 °F 88.6 °F 75.0 °F 79% 29.96 in 10.0 mi SSE 9.2 mph - N/A   Partly Cloudy